"startDT [UTC]","vpos","CH4 [ppm]","stdev(CH4) [ppm]","CO2 [ppm]","stdev(CO2) [ppm]","H2O_reported [%]","stdev(H2O_reported)","CavityPressure [torr]","CavityTemp [C]","OutletValve","CH4_dry [ppm]","CO2_dry [ppm]","DasTemp [C]","EtalonTemp [C]","WarmBoxTemp [C]","MPVPosition","T_ECpre [C]","T_EC1 [C]","T_EC2 [C]","p_inlet [hPa]","p_in [hPa]","p_out [hPa]","T_inlet [C]","RH_inlet [%]","dwpt_inlet [C]","T_vent [C]","RH_vent [%]","dwpt_vent [C]","flow_vent [l min-1]","flow_inlet [l min-1]","dwpt_sample [C]","T_room [C]"
2016-02-20 00:00:00,0.0,1.91927,0.00021,405.910,0.284,0.0644,0.0016,139.999,45.000,31827.16135,1.92049,406.231,35.143,45.069,45.000,0.00,0.09,-272.75,-272.81,-10,525,-966,23.4,1.8,-29.8,23.4,1.9,-29.2,5.73,2.00,-14.3,28.3
2016-02-20 00:01:00,0.0,1.91950,0.00039,406.073,0.224,0.0640,0.0015,140.001,44.999,31825.48557,1.92069,406.377,35.125,45.070,45.000,0.00,0.09,-272.77,-272.81,-10,525,-966,23.4,1.8,-30.0,23.4,1.9,-29.3,5.73,2.00,-14.3,28.2
2016-02-20 00:02:00,0.0,1.91963,0.00033,406.082,0.121,0.0642,0.0012,139.999,44.999,31823.83872,1.92084,406.402,35.126,45.070,45.000,0.00,0.08,-272.76,-272.82,-10,525,-966,23.4,1.8,-29.8,23.4,1.8,-29.6,5.73,2.01,-14.3,28.2
2016-02-20 00:03:00,0.0,1.91962,0.00042,406.638,0.344,0.0635,0.0019,139.998,45.000,31824.87383,1.92084,406.930,35.137,45.070,45.000,0.00,0.09,-272.76,-272.81,-10,525,-966,23.5,1.7,-30.2,23.4,1.8,-29.5,5.73,2.02,-14.4,28.3
2016-02-20 00:04:00,0.0,1.91948,0.00037,406.762,0.325,0.0634,0.0021,140.001,45.000,31825.60922,1.92067,407.080,35.131,45.069,45.000,0.00,0.09,-272.76,-272.82,-10,525,-966,23.5,1.8,-30.0,23.4,1.9,-29.4,5.73,2.01,-14.4,28.2
2016-02-20 00:05:00,0.0,1.91978,0.00026,406.757,0.147,0.0639,0.0016,139.998,45.000,31823.01264,1.92098,407.062,35.170,45.070,45.000,0.00,0.08,-272.76,-272.82,-10,525,-966,23.4,1.8,-29.9,23.4,1.9,-29.4,5.73,2.02,-14.4,28.2
2016-02-20 00:06:00,0.0,1.91981,0.00035,406.375,0.384,0.0629,0.0012,139.998,44.999,31823.24108,1.92102,406.693,35.185,45.069,45.000,0.00,0.09,-272.75,-272.82,-10,525,-966,23.4,1.8,-29.9,23.4,1.9,-29.3,5.73,2.01,-14.4,28.3
2016-02-20 00:07:00,0.0,1.91946,0.00038,406.325,0.707,0.0622,0.0020,139.999,45.000,31823.51626,1.92065,406.638,35.187,45.069,44.999,0.00,0.09,-272.75,-272.81,-10,525,-966,23.5,1.8,-29.9,23.4,1.9,-29.4,5.73,1.99,-14.4,28.2
2016-02-20 00:08:00,0.0,1.91948,0.00049,405.382,0.231,0.0621,0.0018,140.000,45.000,31822.08107,1.92064,405.692,35.183,45.069,44.999,0.00,0.08,-272.76,-272.82,-10,525,-966,23.5,1.7,-30.1,23.4,1.8,-29.5,5.73,1.99,-14.4,28.2
2016-02-20 00:09:00,0.0,1.91984,0.00077,405.416,0.401,0.0610,0.0017,139.998,44.999,31819.68018,1.92093,405.714,35.119,45.069,44.999,0.00,0.09,-272.76,-272.82,-11,525,-966,23.4,1.7,-30.4,23.3,1.9,-29.5,5.73,1.97,-14.4,28.1
2016-02-20 00:10:00,0.0,1.92067,0.00054,405.313,0.117,0.0609,0.0017,139.999,44.999,31817.18601,1.92185,405.609,35.047,45.069,44.999,0.00,0.09,-272.75,-272.81,-11,525,-966,23.4,1.7,-30.1,23.3,1.8,-29.8,5.73,1.95,-14.4,28.0
2016-02-20 00:11:00,0.0,1.92070,0.00041,405.413,0.067,0.0601,0.0018,140.000,44.999,31814.79902,1.92183,405.703,34.977,45.069,44.999,0.00,0.09,-272.76,-272.82,-11,525,-966,23.4,1.6,-30.7,23.3,1.8,-29.8,5.73,1.95,-14.4,28.0
2016-02-20 00:12:00,0.0,1.92078,0.00042,405.501,0.053,0.0601,0.0018,140.002,44.999,31810.80363,1.92189,405.796,34.899,45.069,45.000,0.00,0.31,-270.84,-272.70,-10,525,-966,23.3,1.7,-30.7,23.3,1.8,-29.9,5.43,2.04,-19.8,27.9
2016-02-20 00:13:00,0.0,1.92141,0.00050,405.321,0.225,0.0591,0.0019,139.999,44.999,31804.31856,1.92252,405.615,34.843,45.069,44.999,0.00,0.09,-272.75,-272.81,-10,525,-965,23.3,1.7,-30.5,23.2,1.8,-30.0,5.73,1.95,-14.4,27.9
2016-02-20 00:14:00,0.0,1.92174,0.00068,405.200,0.195,0.0584,0.0014,139.999,44.999,31800.51442,1.92284,405.481,34.813,45.069,45.000,0.00,0.09,-272.76,-272.81,-10,525,-965,23.3,1.6,-30.8,23.2,1.7,-30.2,5.73,1.97,-14.4,27.9
2016-02-20 00:15:00,0.0,1.92116,0.00048,405.529,0.090,0.0562,0.0016,140.001,44.999,31797.47102,1.92226,405.797,34.811,45.070,45.000,0.00,0.08,-272.76,-272.82,-10,525,-965,23.3,1.6,-31.3,23.2,1.7,-30.4,5.73,1.99,-14.4,27.9
2016-02-20 00:16:00,0.0,1.92170,0.00062,405.142,0.212,0.0566,0.0017,140.000,44.999,31800.40085,1.92272,405.430,34.809,45.070,45.001,0.00,0.09,-272.76,-272.81,-10,525,-965,23.4,1.6,-31.1,23.2,1.7,-30.4,5.73,2.00,-14.4,28.0
2016-02-20 00:17:00,0.0,1.92144,0.00047,405.093,0.233,0.0580,0.0021,140.000,45.000,31803.98009,1.92258,405.369,34.816,45.070,45.001,0.00,0.09,-272.76,-272.81,-10,524,-965,23.4,1.6,-30.9,23.3,1.7,-30.5,5.73,2.01,-14.5,28.0
2016-02-20 00:18:00,0.0,1.92156,0.00039,405.192,0.054,0.0562,0.0011,140.001,45.000,31804.31884,1.92260,405.467,34.859,45.071,45.001,0.00,0.08,-272.76,-272.82,-10,525,-965,23.4,1.6,-31.0,23.3,1.7,-30.5,5.73,2.02,-14.4,28.1
2016-02-20 00:19:00,0.0,1.92131,0.00041,405.277,0.202,0.0560,0.0017,140.002,45.001,31807.91073,1.92239,405.542,34.888,45.070,45.001,0.00,0.09,-272.76,-272.82,-10,525,-966,23.5,1.6,-31.2,23.3,1.7,-30.4,5.73,2.03,-14.5,28.1
2016-02-20 00:20:00,0.0,1.92142,0.00037,405.160,0.296,0.0564,0.0019,140.000,45.001,31808.21187,1.92246,405.447,34.960,45.070,45.001,0.00,0.08,-272.75,-272.82,-10,525,-966,23.5,1.6,-31.0,23.4,1.7,-30.4,5.73,2.03,-14.5,28.2
2016-02-20 00:21:00,0.0,1.92171,0.00034,404.887,0.044,0.0578,0.0017,139.998,45.001,31812.83683,1.92282,405.168,35.000,45.070,45.000,0.00,0.09,-272.76,-272.82,-10,525,-966,23.6,1.6,-30.7,23.4,1.7,-30.3,5.73,2.02,-14.5,28.2
2016-02-20 00:22:00,0.0,1.92105,0.00055,405.275,0.361,0.0576,0.0024,140.000,45.001,31817.24499,1.92215,405.549,35.039,45.070,45.000,0.00,0.08,-272.77,-272.82,-10,525,-966,23.6,1.6,-30.9,23.4,1.7,-30.1,5.73,2.02,-14.4,28.3
2016-02-20 00:23:00,0.0,1.92167,0.00059,405.056,0.195,0.0578,0.0013,139.999,45.001,31817.27352,1.92277,405.341,35.065,45.070,45.000,0.00,0.09,-272.76,-272.82,-10,525,-966,23.6,1.6,-31.0,23.4,1.7,-30.2,5.73,2.01,-14.5,28.3
2016-02-20 00:24:00,0.0,1.92191,0.00030,404.834,0.059,0.0587,0.0016,139.998,45.001,31819.84532,1.92300,405.123,35.098,45.070,45.000,0.00,0.09,-272.76,-272.82,-10,525,-966,23.6,1.6,-30.9,23.4,1.7,-30.2,5.73,2.01,-14.5,28.3
2016-02-20 00:25:00,0.0,1.92172,0.00040,404.814,0.026,0.0587,0.0016,140.000,45.001,31822.67759,1.92283,405.099,35.123,45.070,45.000,0.00,0.09,-272.76,-272.82,-10,525,-966,23.6,1.6,-30.7,23.5,1.7,-30.2,5.73,2.00,-14.5,28.3
2016-02-20 00:26:00,0.0,1.92168,0.00036,404.848,0.030,0.0586,0.0014,140.000,45.000,31823.45091,1.92277,405.132,35.125,45.070,45.000,0.00,0.09,-272.76,-272.82,-11,525,-966,23.7,1.6,-30.8,23.5,1.7,-30.0,5.73,1.99,-14.4,28.4
2016-02-20 00:27:00,0.0,1.92183,0.00044,404.844,0.038,0.0570,0.0017,139.999,45.000,31823.48033,1.92292,405.122,35.128,45.070,45.000,0.00,0.09,-272.76,-272.81,-11,525,-966,23.6,1.6,-31.1,23.5,1.7,-30.5,5.73,1.99,-14.4,28.3
2016-02-20 00:28:00,0.0,1.92178,0.00040,404.825,0.034,0.0556,0.0013,139.996,45.000,31823.29748,1.92282,405.096,35.145,45.070,45.000,0.00,0.09,-272.76,-272.82,-11,525,-966,23.6,1.5,-31.2,23.5,1.7,-30.3,5.73,1.98,-14.5,28.4
2016-02-20 00:29:00,0.0,1.92162,0.00027,404.825,0.027,0.0565,0.0013,140.000,45.000,31824.70120,1.92271,405.100,35.185,45.070,45.000,0.00,0.09,-272.76,-272.82,-11,525,-966,23.6,1.5,-31.4,23.5,1.7,-30.4,5.73,1.98,-14.4,28.4
2016-02-20 00:30:00,0.0,1.92148,0.00040,404.814,0.031,0.0564,0.0011,139.998,45.000,31826.33098,1.92254,405.088,35.188,45.070,45.000,0.00,0.09,-272.76,-272.81,-11,525,-966,23.7,1.6,-31.0,23.6,1.6,-30.7,5.73,1.97,-14.5,28.5
2016-02-20 00:31:00,0.0,1.92160,0.00040,404.845,0.033,0.0564,0.0014,139.998,45.000,31826.71886,1.92265,405.121,35.194,45.070,45.000,0.00,0.09,-272.75,-272.81,-11,525,-966,23.7,1.6,-31.1,23.6,1.7,-30.3,5.73,1.97,-14.5,28.5
2016-02-20 00:32:00,0.0,1.92136,0.00031,404.825,0.034,0.0563,0.0016,140.000,45.000,31828.86209,1.92246,405.099,35.223,45.070,45.000,0.00,0.08,-272.75,-272.82,-11,525,-966,23.7,1.5,-31.2,23.6,1.7,-30.4,5.73,1.97,-14.4,28.5
2016-02-20 00:33:00,0.0,1.92125,0.00027,404.775,0.032,0.0562,0.0016,140.000,45.000,31831.54630,1.92230,405.048,35.191,45.070,45.000,0.00,0.09,-272.75,-272.81,-11,525,-966,23.7,1.6,-30.8,23.6,1.7,-30.3,5.73,1.96,-14.4,28.5
2016-02-20 00:34:00,0.0,1.92155,0.00045,404.805,0.027,0.0561,0.0015,139.997,44.998,31828.40506,1.92260,405.077,35.188,45.070,45.000,0.00,0.09,-272.76,-272.81,-11,525,-966,23.7,1.5,-31.1,23.6,1.6,-30.6,5.73,1.96,-14.4,28.6
2016-02-20 00:35:00,0.0,1.92196,0.00032,404.809,0.025,0.0566,0.0018,140.002,44.999,31826.93337,1.92299,405.086,35.187,45.070,45.000,0.00,0.09,-272.76,-272.82,-11,525,-966,23.7,1.5,-31.2,23.6,1.6,-30.7,5.73,1.96,-14.5,28.5
2016-02-20 00:36:00,0.0,1.92178,0.00035,404.800,0.042,0.0559,0.0017,139.998,45.008,31833.55244,1.92288,405.072,35.188,45.069,45.000,0.00,0.09,-272.75,-272.82,-11,526,-966,23.7,1.5,-31.2,23.6,1.7,-30.5,5.73,1.96,-14.4,28.5
2016-02-20 00:37:00,0.0,1.92148,0.00040,404.775,0.025,0.0566,0.0023,140.000,45.015,31850.03447,1.92253,405.051,35.190,45.069,44.999,0.00,0.09,-272.75,-272.81,-11,525,-966,23.7,1.5,-31.4,23.6,1.7,-30.5,5.73,1.96,-14.4,28.6
2016-02-20 00:38:00,0.0,1.92181,0.00026,404.772,0.036,0.0569,0.0011,139.999,45.015,31856.79397,1.92292,405.048,35.204,45.069,45.000,0.00,0.09,-272.76,-272.82,-11,525,-966,23.7,1.5,-31.2,23.6,1.7,-30.5,5.73,1.97,-14.5,28.5
2016-02-20 00:39:00,0.0,1.92178,0.00036,404.796,0.032,0.0560,0.0020,140.001,45.011,31862.46247,1.92281,405.069,35.243,45.070,45.000,0.00,0.09,-272.76,-272.82,-11,526,-966,23.7,1.5,-31.2,23.6,1.7,-30.5,5.73,1.96,-14.4,28.6
2016-02-20 00:40:00,0.0,1.92162,0.00026,404.784,0.034,0.0557,0.0018,139.998,45.006,31864.31380,1.92270,405.055,35.250,45.070,45.000,0.00,0.09,-272.76,-272.81,-11,526,-966,23.7,1.5,-31.2,23.6,1.6,-30.7,5.73,1.95,-14.4,28.6
2016-02-20 00:41:00,0.0,1.92186,0.00034,404.792,0.030,0.0554,0.0016,139.999,45.001,31863.59113,1.92289,405.062,35.250,45.070,45.001,0.00,0.09,-272.76,-272.81,-11,526,-966,23.7,1.5,-31.2,23.6,1.7,-30.5,5.73,1.96,-14.4,28.6
2016-02-20 00:42:00,0.0,1.92179,0.00026,404.821,0.031,0.0556,0.0019,139.998,44.997,31861.44817,1.92285,405.091,35.249,45.070,45.001,0.00,0.09,-272.76,-272.82,-11,525,-966,23.7,1.5,-31.2,23.6,1.7,-30.5,5.73,1.96,-14.4,28.6
2016-02-20 00:43:00,0.0,1.92193,0.00038,404.814,0.035,0.0556,0.0014,139.999,44.994,31859.02335,1.92299,405.084,35.249,45.070,45.001,0.00,0.09,-272.75,-272.82,-11,526,-966,23.7,1.6,-31.1,23.7,1.6,-30.6,5.73,1.97,-14.5,28.7
2016-02-20 00:44:00,0.0,1.92199,0.00039,404.821,0.037,0.0551,0.0017,139.997,44.993,31856.25365,1.92301,405.091,35.244,45.070,45.000,0.00,0.09,-272.75,-272.81,-11,526,-966,23.7,1.5,-31.2,23.7,1.6,-30.5,5.73,1.98,-14.4,28.6
2016-02-20 00:45:00,0.0,1.92202,0.00045,404.822,0.030,0.0555,0.0017,139.997,44.992,31851.24758,1.92308,405.092,35.241,45.070,45.000,0.00,0.09,-272.76,-272.82,-11,526,-966,23.7,1.5,-31.4,23.6,1.6,-30.7,5.73,1.99,-14.5,28.6
2016-02-20 00:46:00,0.0,1.92162,0.00040,404.811,0.025,0.0553,0.0020,139.999,44.992,31846.84628,1.92267,405.081,35.250,45.070,45.000,0.00,0.09,-272.76,-272.82,-11,526,-966,23.7,1.5,-31.2,23.6,1.6,-30.7,5.73,1.99,-14.4,28.6
2016-02-20 00:47:00,0.0,1.92175,0.00034,404.819,0.042,0.0565,0.0018,140.001,44.992,31841.75614,1.92281,405.093,35.250,45.070,45.000,0.00,0.09,-272.75,-272.81,-11,526,-966,23.7,1.6,-31.0,23.6,1.6,-30.6,5.73,1.99,-14.4,28.6
2016-02-20 00:48:00,0.0,1.92202,0.00029,404.834,0.037,0.0571,0.0020,140.000,44.993,31835.35704,1.92310,405.111,35.252,45.069,45.000,0.00,0.09,-272.76,-272.82,-11,526,-966,23.7,1.6,-30.9,23.6,1.7,-30.3,5.73,2.00,-14.4,28.5
2016-02-20 00:49:00,0.0,1.92214,0.00043,404.860,0.036,0.0565,0.0019,140.000,44.995,31833.01692,1.92321,405.136,35.285,45.069,44.999,0.00,0.09,-272.76,-272.82,-11,526,-966,23.6,1.6,-31.1,23.6,1.7,-30.4,5.73,2.01,-14.5,28.6
2016-02-20 00:50:00,0.0,1.92208,0.00041,404.848,0.030,0.0576,0.0023,139.998,44.996,31831.71981,1.92315,405.128,35.320,45.069,44.999,0.00,0.09,-272.75,-272.82,-11,526,-966,23.7,1.6,-30.9,23.7,1.7,-30.4,5.73,2.01,-14.5,28.6
2016-02-20 00:51:00,0.0,1.92200,0.00040,404.866,0.032,0.0578,0.0013,139.998,44.997,31831.01030,1.92309,405.148,35.347,45.069,44.999,0.00,0.09,-272.76,-272.82,-11,526,-966,23.7,1.6,-30.7,23.6,1.7,-30.2,5.73,2.01,-14.5,28.6
2016-02-20 00:52:00,0.0,1.92176,0.00042,404.848,0.030,0.0581,0.0015,139.999,44.999,31831.78801,1.92286,405.130,35.341,45.069,44.999,0.00,0.08,-272.76,-272.82,-11,526,-966,23.7,1.6,-31.0,23.7,1.7,-30.2,5.73,2.02,-14.5,28.6
2016-02-20 00:53:00,0.0,1.92177,0.00038,404.832,0.030,0.0569,0.0013,140.002,45.000,31831.54249,1.92288,405.111,35.355,45.069,44.999,0.00,0.09,-272.76,-272.81,-11,526,-966,23.7,1.5,-31.3,23.7,1.7,-30.4,5.73,2.02,-14.5,28.6
2016-02-20 00:54:00,0.0,1.92187,0.00034,404.831,0.037,0.0575,0.0022,140.000,45.000,31830.62003,1.92295,405.109,35.324,45.069,44.999,0.00,0.09,-272.76,-272.81,-11,526,-966,23.7,1.6,-31.0,23.7,1.7,-30.4,5.73,2.01,-14.5,28.6
2016-02-20 00:55:00,0.0,1.92190,0.00044,404.862,0.032,0.0567,0.0012,139.995,45.001,31827.44806,1.92298,405.140,35.312,45.069,45.000,0.00,0.09,-272.76,-272.81,-11,526,-966,23.7,1.6,-31.1,23.6,1.7,-30.3,5.73,2.01,-14.5,28.6
2016-02-20 00:56:00,0.0,1.92175,0.00034,404.818,0.027,0.0568,0.0012,139.999,45.001,31830.42836,1.92283,405.095,35.312,45.069,45.000,0.00,0.09,-272.76,-272.82,-11,526,-966,23.6,1.6,-31.0,23.6,1.7,-30.3,5.73,2.00,-14.5,28.5
2016-02-20 00:57:00,0.0,1.92122,0.00044,404.836,0.036,0.0572,0.0019,139.999,45.001,31831.34372,1.92234,405.114,35.283,45.070,45.000,0.00,0.09,-272.75,-272.82,-11,526,-966,23.6,1.6,-31.1,23.6,1.7,-30.4,5.73,1.99,-14.5,28.5
2016-02-20 00:58:00,0.0,1.92098,0.00053,404.856,0.032,0.0579,0.0021,140.001,45.001,31831.20973,1.92204,405.137,35.257,45.070,45.000,0.00,0.09,-272.76,-272.81,-11,526,-966,23.6,1.5,-31.2,23.6,1.7,-30.4,5.73,1.99,-14.5,28.5
2016-02-20 00:59:00,0.0,1.92136,0.00042,404.861,0.025,0.0577,0.0015,140.000,45.001,31829.67638,1.92245,405.143,35.225,45.070,45.000,0.00,0.08,-272.76,-272.82,-11,526,-966,23.6,1.6,-30.8,23.6,1.7,-30.4,5.73,1.99,-14.5,28.5
2016-02-20 01:00:00,0.0,1.92118,0.00038,404.841,0.031,0.0568,0.0022,140.000,45.000,31829.60428,1.92225,405.117,35.196,45.070,45.000,0.00,0.09,-272.75,-272.82,-11,526,-966,23.6,1.6,-30.9,23.6,1.7,-30.4,5.73,2.00,-14.5,28.5
2016-02-20 01:01:00,0.0,1.92155,0.00031,404.869,0.037,0.0577,0.0018,140.000,45.000,31828.91397,1.92265,405.148,35.190,45.070,45.001,0.00,0.09,-272.75,-272.81,-11,526,-966,23.6,1.6,-30.9,23.6,1.7,-30.4,5.73,1.99,-14.5,28.5
2016-02-20 01:02:00,0.0,1.92114,0.00036,404.848,0.030,0.0574,0.0013,140.001,45.000,31829.45174,1.92220,405.129,35.188,45.070,45.001,0.00,0.09,-272.76,-272.82,-11,526,-966,23.6,1.6,-30.7,23.6,1.7,-30.3,5.73,1.98,-14.5,28.5
2016-02-20 01:03:00,0.0,1.92153,0.00032,404.850,0.031,0.0580,0.0019,140.001,45.000,31828.17976,1.92264,405.133,35.184,45.070,45.001,0.00,0.09,-272.75,-272.82,-11,526,-966,23.6,1.6,-31.0,23.6,1.7,-30.3,5.73,1.97,-14.5,28.5
2016-02-20 01:04:00,0.0,1.92132,0.00023,404.831,0.024,0.0586,0.0012,139.998,45.000,31827.97290,1.92242,405.116,35.165,45.070,45.000,0.00,0.09,-272.75,-272.82,-11,526,-966,23.6,1.6,-30.7,23.6,1.7,-30.1,5.73,1.97,-14.5,28.5
2016-02-20 01:05:00,0.0,1.92144,0.00033,404.853,0.032,0.0581,0.0018,140.001,45.000,31828.46602,1.92255,405.137,35.183,45.070,45.001,0.00,0.09,-272.76,-272.82,-11,526,-966,23.6,1.6,-30.7,23.6,1.7,-30.2,5.73,1.96,-14.5,28.5
2016-02-20 01:06:00,0.0,1.92143,0.00041,404.861,0.035,0.0585,0.0021,139.998,45.000,31828.46493,1.92251,405.143,35.185,45.070,45.000,0.00,0.09,-272.76,-272.82,-11,526,-966,23.6,1.6,-30.7,23.6,1.7,-30.2,5.73,1.96,-14.5,28.5
2016-02-20 01:07:00,0.0,1.92160,0.00035,404.911,0.027,0.0599,0.0017,139.999,45.000,31826.43273,1.92273,405.202,35.196,45.070,45.000,0.00,0.09,-272.75,-272.81,-11,526,-966,23.6,1.6,-30.9,23.6,1.7,-30.1,5.73,1.95,-14.5,28.5
2016-02-20 01:08:00,0.0,1.92133,0.00046,404.895,0.033,0.0595,0.0016,139.999,45.000,31827.13038,1.92250,405.186,35.204,45.070,45.000,0.00,0.09,-272.76,-272.82,-11,526,-966,23.6,1.7,-30.4,23.6,1.7,-30.0,5.73,1.95,-14.5,28.5
2016-02-20 01:09:00,0.0,1.92116,0.00037,404.877,0.034,0.0597,0.0022,140.000,45.000,31828.24100,1.92227,405.167,35.197,45.069,45.000,0.00,0.08,-272.77,-272.82,-11,526,-966,23.6,1.7,-30.5,23.6,1.7,-30.1,5.73,1.95,-14.5,28.5
2016-02-20 01:10:00,0.0,1.92146,0.00044,404.879,0.040,0.0589,0.0015,140.001,45.000,31826.73516,1.92255,405.167,35.188,45.069,45.000,0.00,0.09,-272.75,-272.81,-11,526,-966,23.6,1.6,-30.7,23.6,1.7,-30.1,5.73,1.96,-14.5,28.5
2016-02-20 01:11:00,0.0,1.92128,0.00048,404.899,0.034,0.0585,0.0016,140.000,45.000,31825.83740,1.92240,405.183,35.175,45.069,45.000,0.00,0.09,-272.74,-272.81,-11,526,-966,23.5,1.6,-31.0,23.6,1.8,-29.8,5.73,1.96,-14.5,28.5
2016-02-20 01:12:00,0.0,1.92108,0.00046,404.849,0.042,0.0574,0.0013,139.998,45.000,31826.37469,1.92218,405.130,35.129,45.069,45.000,0.00,0.08,-272.76,-272.82,-11,526,-966,23.5,1.6,-30.8,23.6,1.7,-30.3,5.73,1.97,-14.5,28.5
2016-02-20 01:13:00,0.0,1.92122,0.00030,404.873,0.029,0.0583,0.0017,140.000,45.000,31825.21471,1.92231,405.154,35.120,45.070,45.000,0.00,0.09,-272.76,-272.82,-11,526,-966,23.5,1.6,-30.8,23.6,1.7,-30.4,5.73,1.97,-14.5,28.4
2016-02-20 01:14:00,0.0,1.92111,0.00027,404.882,0.023,0.0583,0.0014,139.999,45.000,31824.89237,1.92219,405.166,35.090,45.070,45.000,0.00,0.09,-272.75,-272.81,-11,525,-966,23.5,1.6,-30.7,23.6,1.7,-30.2,5.73,1.96,-14.5,28.4
2016-02-20 01:15:00,0.0,1.92130,0.00042,404.902,0.030,0.0582,0.0018,139.996,45.000,31822.27602,1.92243,405.188,35.066,45.070,45.000,0.00,0.09,-272.76,-272.82,-11,525,-966,23.5,1.6,-30.8,23.5,1.7,-30.0,5.73,1.97,-14.5,28.4
2016-02-20 01:16:00,0.0,1.92120,0.00040,404.854,0.032,0.0584,0.0015,140.000,45.000,31824.41182,1.92228,405.138,35.072,45.070,45.000,0.00,0.09,-272.76,-272.82,-11,526,-966,23.5,1.6,-30.8,23.5,1.7,-30.2,5.73,1.98,-14.5,28.4
2016-02-20 01:17:00,0.0,1.92150,0.00028,404.844,0.033,0.0580,0.0015,140.001,45.000,31825.78821,1.92260,405.128,35.064,45.070,45.000,0.00,0.09,-272.75,-272.81,-11,525,-966,23.5,1.6,-31.0,23.5,1.7,-30.1,5.73,1.98,-14.5,28.4
2016-02-20 01:18:00,0.0,1.92162,0.00029,404.850,0.033,0.0582,0.0018,139.999,45.000,31823.57181,1.92270,405.131,35.063,45.070,45.000,0.00,0.09,-272.76,-272.82,-11,525,-966,23.5,1.6,-30.8,23.5,1.7,-30.1,5.73,1.98,-14.5,28.4
2016-02-20 01:19:00,0.0,1.92185,0.00036,404.888,0.030,0.0595,0.0015,139.998,45.000,31822.18533,1.92300,405.177,35.059,45.070,45.000,0.00,0.08,-272.77,-272.82,-11,525,-966,23.5,1.7,-30.5,23.5,1.7,-30.3,5.73,1.98,-14.5,28.4
2016-02-20 01:20:00,0.0,1.92157,0.00034,404.847,0.037,0.0591,0.0014,140.001,45.000,31822.32044,1.92269,405.135,35.047,45.070,45.000,0.00,0.09,-272.76,-272.81,-11,525,-966,23.5,1.6,-30.8,23.5,1.8,-30.0,5.73,1.98,-14.5,28.3
2016-02-20 01:21:00,0.0,1.92146,0.00038,404.828,0.033,0.0588,0.0012,140.000,45.000,31823.43999,1.92257,405.115,35.062,45.070,45.000,0.00,0.09,-272.75,-272.80,-11,525,-966,23.5,1.6,-30.8,23.5,1.7,-30.2,5.73,1.99,-14.5,28.4
2016-02-20 01:22:00,0.0,1.92165,0.00034,404.843,0.035,0.0585,0.0014,140.001,45.000,31821.61102,1.92277,405.128,35.063,45.070,45.000,0.00,0.09,-272.77,-272.82,-11,525,-966,23.5,1.6,-30.8,23.5,1.7,-30.2,5.73,1.99,-14.5,28.4
2016-02-20 01:23:00,0.0,1.92159,0.00040,404.850,0.034,0.0590,0.0019,140.000,45.000,31822.05632,1.92266,405.136,35.062,45.069,45.000,0.00,0.08,-272.76,-272.82,-11,525,-966,23.5,1.7,-30.4,23.5,1.7,-30.2,5.73,1.99,-14.5,28.4
2016-02-20 01:24:00,0.0,1.92135,0.00047,404.865,0.022,0.0588,0.0015,140.000,45.000,31820.24848,1.92249,405.153,35.062,45.069,45.000,0.00,0.09,-272.75,-272.81,-11,525,-966,23.5,1.6,-30.6,23.5,1.7,-30.2,5.73,1.99,-14.5,28.4
2016-02-20 01:25:00,0.0,1.92115,0.00033,404.841,0.039,0.0584,0.0017,140.000,45.000,31820.88500,1.92226,405.124,35.062,45.069,45.000,0.00,0.09,-272.75,-272.82,-11,525,-966,23.5,1.6,-30.6,23.5,1.7,-30.1,5.73,1.99,-14.5,28.4
2016-02-20 01:26:00,0.0,1.92135,0.00028,404.872,0.034,0.0588,0.0021,140.000,45.000,31819.97602,1.92246,405.158,35.065,45.069,45.000,0.00,0.08,-272.76,-272.82,-11,525,-966,23.6,1.6,-30.8,23.5,1.7,-30.1,5.73,2.00,-14.5,28.5
2016-02-20 01:27:00,0.0,1.92152,0.00040,404.822,0.019,0.0592,0.0024,139.997,45.000,31821.58184,1.92261,405.110,35.065,45.069,45.000,0.00,0.09,-272.76,-272.81,-11,525,-966,23.6,1.6,-30.7,23.6,1.7,-30.3,5.73,2.00,-14.5,28.4
2016-02-20 01:28:00,0.0,1.92147,0.00040,404.810,0.028,0.0588,0.0014,139.998,45.000,31820.59579,1.92262,405.095,35.063,45.069,45.000,0.00,0.09,-272.75,-272.81,-11,525,-966,23.6,1.7,-30.3,23.6,1.7,-30.1,5.73,2.00,-14.5,28.4
2016-02-20 01:29:00,0.0,1.92116,0.00039,404.862,0.026,0.0594,0.0016,139.999,45.000,31820.88854,1.92229,405.151,35.062,45.069,45.000,0.00,0.09,-272.77,-272.82,-11,525,-966,23.6,1.7,-30.5,23.5,1.7,-30.1,5.73,2.00,-14.6,28.4
2016-02-20 01:30:00,0.0,1.92142,0.00030,404.825,0.040,0.0585,0.0016,139.998,45.000,31818.97025,1.92249,405.111,35.063,45.070,45.000,0.00,0.09,-272.76,-272.82,-11,525,-966,23.6,1.6,-30.6,23.5,1.7,-30.0,5.73,1.99,-14.6,28.4
2016-02-20 01:31:00,0.0,1.92142,0.00034,404.837,0.032,0.0593,0.0019,140.002,45.000,31819.30942,1.92254,405.123,35.062,45.070,45.000,0.00,0.09,-272.75,-272.81,-11,525,-966,23.6,1.7,-30.4,23.6,1.7,-30.1,5.73,1.99,-14.6,28.4
2016-02-20 01:32:00,0.0,1.92160,0.00039,404.850,0.030,0.0599,0.0015,140.000,45.000,31818.84771,1.92274,405.141,35.061,45.070,45.000,0.00,0.08,-272.76,-272.82,-11,525,-966,23.6,1.7,-30.5,23.5,1.8,-29.9,5.73,2.00,-14.6,28.4
2016-02-20 01:33:00,0.0,1.92148,0.00031,404.880,0.031,0.0595,0.0021,140.000,45.000,31816.50489,1.92261,405.170,35.050,45.070,45.000,0.00,0.09,-272.76,-272.81,-11,525,-966,23.6,1.6,-30.6,23.5,1.8,-29.8,5.73,2.00,-14.6,28.4
2016-02-20 01:34:00,0.0,1.92147,0.00036,404.868,0.022,0.0595,0.0017,139.999,45.000,31815.70318,1.92259,405.158,35.021,45.070,45.000,0.00,0.09,-272.76,-272.81,-11,525,-966,23.6,1.7,-30.5,23.5,1.8,-29.8,5.73,2.00,-14.6,28.4
2016-02-20 01:35:00,0.0,1.92180,0.00032,404.866,0.037,0.0596,0.0014,139.999,45.000,31813.63190,1.92289,405.155,35.017,45.070,45.000,0.00,0.09,-272.76,-272.82,-11,525,-966,23.6,1.6,-30.6,23.5,1.8,-29.8,5.73,2.00,-14.6,28.4
2016-02-20 01:36:00,0.0,1.92132,0.00034,404.874,0.036,0.0590,0.0020,139.999,45.000,31812.91110,1.92245,405.162,35.018,45.070,45.000,0.00,0.09,-272.76,-272.82,-11,525,-966,23.5,1.6,-30.7,23.5,1.8,-29.9,5.73,2.00,-14.6,28.4
2016-02-20 01:37:00,0.0,1.92145,0.00034,404.881,0.042,0.0601,0.0017,139.998,45.000,31812.74671,1.92258,405.172,35.020,45.070,45.000,0.00,0.09,-272.75,-272.81,-11,525,-966,23.5,1.7,-30.5,23.4,1.7,-30.1,5.73,1.99,-14.6,28.3
2016-02-20 01:38:00,0.0,1.92164,0.00037,404.890,0.042,0.0603,0.0023,140.001,45.000,31811.47178,1.92277,405.184,34.976,45.070,45.000,0.00,0.09,-272.75,-272.81,-11,525,-966,23.5,1.7,-30.5,23.4,1.8,-29.8,5.73,1.97,-14.6,28.3
2016-02-20 01:39:00,0.0,1.92125,0.00040,404.884,0.036,0.0607,0.0020,139.998,45.000,31809.25114,1.92243,405.180,34.904,45.070,45.000,0.00,0.08,-272.76,-272.81,-11,525,-966,23.5,1.7,-30.3,23.4,1.8,-29.8,5.73,1.95,-14.6,28.2
2016-02-20 01:40:00,0.0,1.92118,0.00034,404.880,0.030,0.0610,0.0018,140.000,45.000,31807.28700,1.92232,405.177,34.849,45.070,45.000,0.00,0.09,-272.76,-272.82,-10,525,-966,23.4,1.7,-30.4,23.4,1.8,-29.9,5.73,1.94,-14.6,28.2
2016-02-20 01:41:00,0.0,1.92097,0.00039,404.839,0.026,0.0597,0.0013,139.997,44.999,31805.52966,1.92213,405.130,34.813,45.070,45.000,0.00,0.09,-272.75,-272.81,-10,525,-966,23.4,1.7,-30.4,23.4,1.8,-29.8,5.73,1.96,-14.6,28.1
2016-02-20 01:42:00,0.0,1.92088,0.00036,404.818,0.028,0.0606,0.0022,139.999,44.999,31802.15227,1.92199,405.112,34.832,45.070,45.000,0.00,0.09,-272.76,-272.82,-10,525,-966,23.4,1.7,-30.5,23.4,1.8,-30.0,5.73,1.98,-14.6,28.2
2016-02-20 01:43:00,0.0,1.92088,0.00033,404.822,0.029,0.0597,0.0018,139.998,45.000,31801.27451,1.92203,405.114,34.860,45.070,45.000,0.00,0.09,-272.76,-272.83,-11,525,-966,23.4,1.7,-30.6,23.4,1.8,-30.0,5.73,1.99,-14.6,28.2
2016-02-20 01:44:00,0.0,1.92078,0.00026,404.821,0.024,0.0599,0.0020,139.998,45.000,31804.07881,1.92190,405.112,34.873,45.070,45.000,0.00,0.09,-272.75,-272.81,-11,525,-966,23.4,1.7,-30.5,23.4,1.8,-29.9,5.73,1.99,-14.6,28.2